Location: Newark
(41.0400°S, 62.7845°W)
Time: 00:22:28
(UTC+00:00)

Vanguard 2 - Pass Details

Date: 03 December 2021
Orbit: 554 x 2935 km, 32.9° (Epoch: 27 January)

Event Time Altitude Azimuth Distance (km) Brightness Sun altitude
Rises 02:15:31 0° 338° (NNW) 6,504 11.9 -22.3°
Enters shadow 02:16:18 - 340° (NNW) 6,376 11.8 -22.3°
Exits shadow 02:36:23 25° 49° (NE) 4,497 10.9 -23.9°
Drops below altitude 10° 02:45:57 10° 85° (E) 5,273 11.5 -24.5°
Sets 02:50:35 0° 96° (E) 5,992 12.0 -24.8°
